This is the latest recevied weather packets stored in our database for station/object KB1RMA-4. If no packets are shown the sender has not sent any weather packets the latest 10 day(s).
| Time | Temp. | Humidity | Pressure | Rain* | Wind** | Luminosity | Snow |
|---|---|---|---|---|---|---|---|
| 1787426750 | 19.44° C | 80% | 1017.9 hPa | 0 mm | - | 99 W/m² | - |
| 1787426445 | 19.44° C | 81% | 1017.8 hPa | 0 mm | - | 97 W/m² | - |
| 1787426142 | 19.44° C | 80% | 1017.9 hPa | 0 mm | - | 93 W/m² | - |
| 1787425838 | 19.44° C | 80% | 1018 hPa | 0 mm | - | 99 W/m² | - |
| 1787425534 | 19.44° C | 80% | 1018.1 hPa | 0 mm | - | 87 W/m² | - |
| 1787425229 | 19.44° C | 80% | 1018 hPa | 0 mm | - | 101 W/m² | - |
| 1787424928 | 19.44° C | 80% | 1018.1 hPa | 0 mm | - | 102 W/m² | - |
| 1787424628 | 19.44° C | 80% | 1017.9 hPa | 0 mm | - | 122 W/m² | - |
| 1787424324 | 18.89° C | 80% | 1018 hPa | 0 mm | - | 138 W/m² | - |
| 1787424024 | 18.89° C | 80% | 1018.1 hPa | 0 mm | - | 96 W/m² | - |
| 1787423720 | 18.89° C | 80% | 1018.1 hPa | 0 mm | - | 82 W/m² | - |
| 1787423416 | 18.89° C | 81% | 1018.2 hPa | 0 mm | - | 106 W/m² | - |
| 1787423113 | 18.89° C | 81% | 1018.2 hPa | 0 mm | - | 101 W/m² | - |
| 1787422813 | 18.89° C | 81% | 1018.2 hPa | 0 mm | - | 85 W/m² | - |
| 1787422510 | 18.89° C | 81% | 1018.1 hPa | 0 mm | - | 155 W/m² | - |
| 1787422209 | 18.89° C | 81% | 1018.2 hPa | 0 mm | - | 179 W/m² | - |
| 1787421906 | 18.33° C | 82% | 1018 hPa | 0 mm | - | 252 W/m² | - |
| 1787421601 | 18.33° C | 83% | 1018.1 hPa | 0 mm | - | 173 W/m² | - |
| 1787421297 | 18.33° C | 83% | 1018.3 hPa | 0 mm | - | 146 W/m² | - |
| 1787420997 | 18.33° C | 83% | 1018.2 hPa | 0 mm | - | 97 W/m² | - |
| 1787420692 | 18.33° C | 83% | 1018.7 hPa | 0 mm | - | 103 W/m² | - |
| 1787420388 | 18.33° C | 83% | 1018.6 hPa | 0 mm | - | 78 W/m² | - |
| 1787420085 | 18.33° C | 82% | 1018.5 hPa | 0 mm | - | 59 W/m² | - |
| 1787419781 | 18.33° C | 82% | 1018.7 hPa | 0 mm | - | 52 W/m² | - |
| 1787419476 | 18.89° C | 81% | 1018.8 hPa | 0 mm | - | 58 W/m² | - |
* Rain latest hour (hover to see other rain measurements)
** Current wind speed in m/s (hover to see current wind gust speed)